Tracking 33190 objects as of 9-Feb-2026
HD Live streaming from Space Station
objects crossing your sky now

STARLINK-5720

Track STARLINK-5720 now!
10-day predictions
STARLINK-5720 is classified as:


NORAD ID: 55619
Int'l Code: 2023-020BC
Perigee: 565.5 km
Apogee: 567.0 km
Inclination: 43.0 °
Period: 95.8 minutes
Semi major axis: 6937 km
RCS: Unknown
Launch date: February 12, 2023
Source: United States (US)
Launch site: AIR FORCE EASTERN TEST RANGE (AFETR)
Your satellite tracking list
Your tracking list is empty




NASA's NSSDC Master Catalog

Two Line Element Set (TLE):
1 55619U 23020BC  26040.31653231  .00000115  00000-0  23566-4 0  9992
2 55619  42.9975 145.6237 0001056 257.0114 103.0610 15.02532782164809
Source of the keplerian elements: AFSPC